ONEWEB-0565 (55146 NORAD) Tracking and Keplerian Element Data

This shows tracking and keplerian element data for the satellite.

Feedback or suggestion? Click here.




ElementValue
Catalog55146
NameONEWEB-0565
Epoch Orbit1120
Epoch Day84.89693335
Epoch Year2023
RAAN253.6192
Inclination86.6234
Eccentricity0.0013443
Argument of Perigee336.0522
Mean Anonmoly24.0064
Mean Motion14.6593668
Decay Rate1.712E-05
L11 55146U 23004G 23084.89693335 .00001712 00000+0 30850-3 0 9992
L22 55146 86.6234 253.6192 0013443 336.0522 24.0064 14.65936680 11204



Live tracking and technical data element details for ONEWEB-0565 (NORAD 55146). ONEWEB-0565 can be tracked NOW for your location showing map with azimuth and elevation plus other details from your city location.







IsCatalogInMostPopularTable: catalog: 55146, numindb: 8
Update: records affected: 1



GetName: 55146 ONEWEB-0565

Hit Count: updated at: Mon, 27 Mar 2023 06:57:45 GMT